Location: Bieg
(49.3499°N, 10.3835°E)
Time: 23:08:48
(UTC+00:00)

Cosmos 1703 - Pass Details

Date: 23 May 2024
Orbit: 485 x 498 km, 82.5° (Epoch: 25 June)

Event Time Altitude Azimuth Distance (km) Brightness Sun altitude
Exits shadow 02:02:12 13° 194° (SSW) 1,504 5.0 -10.8°
Maximum altitude 02:05:26 78° 279° (W) 518 3.1 -10.5°
Drops below altitude 10° 02:09:12 10° 7° (N) 1,715 6.8 -10.1°
Sets 02:11:20 0° 9° (N) 2,601 7.9 -9.8°
